Montpelier, VT

9:49 PM EDT on July 22, 2017 (GMT -0400)
Knapp State

Weather History for KMPV - August, 2014

Change the Weather History Date:

Friday, August 1, 2014

  Actual Average Record
Temperature  
Mean Temperature 66 °F 67 °F  
Max Temperature 80 °F 78 °F 94 °F (1975)
Min Temperature 51 °F 56 °F 39 °F (1964)
Degree Days  
Heating Degree Days 0 1  
Month to date heating degree days 0 1  
Since 1 June heating degree days 143 162  
Since 1 July heating degree days 43 41  
Cooling Degree Days 1 3  
Month to date cooling degree days 1 3  
Year to date cooling degree days 133 171  
Since 1 June cooling degree days 132 161  
Growing Degree Days 16 (Base 50)    
Moisture  
Dew Point 55 °F    
Average Humidity 71    
Maximum Humidity 100    
Minimum Humidity 42    
Precipitation  
Precipitation 0.00 in 0.16 in 0.65 in (2008)
Month to date precipitation 0.00 0.16  
Year to date precipitation 22.30 20.95  
Sea Level Pressure  
Sea Level Pressure 30.21 in    
Wind  
Wind Speed 4 mph (South)    
Max Wind Speed 14 mph    
Max Gust Speed 19 mph    
Visibility 6 miles    
Events Fog    
T = Trace of Precipitation, MM = Missing Value Source: NWS Daily Summary

Daily Weather History Graph

Daily Weather History Graph

Search for Another Location

Airport or City:

Trip Planner

Search our weather history database for the weather conditions in past years. The results will help you decide how hot, cold, wet, or windy it might be!

Date:

Astronomy

Aug. 01, 2014 Rise Set
Actual Time 5:37 AM EDT 8:14 PM EDT
Civil Twilight 5:04 AM EDT 8:47 PM EDT
Nautical Twilight 4:23 AM EDT 9:28 PM EDT
Astronomical Twilight 3:35 AM EDT 10:16 PM EDT
Moon 11:12 AM EDT (8/1) 10:43 PM EDT (8/1)
Length of Visible Light 15h 42m
Length of Day
14h 36m
Waxing Crescent, 27% of the Moon is Illuminated
Aug 1
Waxing Crescent
Aug 3
First Quarter
Aug 10
Full
Aug 17
Last Quarter
Aug 25
New

Hourly Weather History & Observations

Time (EDT) Temp. Heat Index Dew Point Humidity Pressure Visibility Wind Dir Wind Speed Gust Speed Precip Events Conditions
12:51 AM 57.0 °F - 55.9 °F 96% 30.19 in 8.0 mi Calm Calm - N/A   Mostly Cloudy
1:51 AM 57.0 °F - 55.9 °F 96% 30.19 in 9.0 mi Calm Calm - N/A   Overcast
2:46 AM 53.6 °F - 51.8 °F 94% 30.19 in 6.0 mi Calm Calm - N/A   Partly Cloudy
2:51 AM 54.0 °F - 52.0 °F 93% 30.19 in 7.0 mi Calm Calm - N/A   Clear
3:04 AM 53.1 °F - 52.0 °F 96% 30.19 in 2.5 mi Calm Calm - N/A   Clear
3:13 AM 53.1 °F - 52.0 °F 96% 30.19 in 7.0 mi Calm Calm - N/A   Clear
3:17 AM 53.1 °F - 52.0 °F 96% 30.19 in 2.5 mi Calm Calm - N/A   Partly Cloudy
3:24 AM 53.1 °F - 52.0 °F 96% 30.19 in 1.5 mi Calm Calm - N/A   Mostly Cloudy
3:32 AM 52.0 °F - 51.1 °F 97% 30.19 in 2.5 mi Calm Calm - N/A   Mostly Cloudy
3:37 AM 52.0 °F - 52.0 °F 100% 30.19 in 1.0 mi Calm Calm - N/A   Mist
3:44 AM 52.0 °F - 52.0 °F 100% 30.19 in 0.2 mi Calm Calm - N/A Fog Fog
3:51 AM 52.0 °F - 52.0 °F 100% 30.20 in 0.2 mi Calm Calm - N/A Fog Fog
4:51 AM 52.0 °F - 52.0 °F 100% 30.21 in 0.2 mi SSE 3.5 mph - N/A Fog Fog
5:20 AM 51.1 °F - 51.1 °F 100% 30.21 in 1.0 mi Calm Calm - N/A   Overcast
5:24 AM 52.0 °F - 51.1 °F 97% 30.21 in 1.5 mi Calm Calm - N/A   Overcast
5:29 AM 52.0 °F - 51.1 °F 97% 30.21 in 3.0 mi Calm Calm - N/A   Overcast
5:33 AM 52.0 °F - 52.0 °F 100% 30.21 in 1.8 mi Calm Calm - N/A   Overcast
5:37 AM 52.0 °F - 52.0 °F 100% 30.21 in 1.0 mi Calm Calm - N/A   Overcast
5:48 AM 51.8 °F - 51.8 °F 100% 30.21 in 0.5 mi Calm Calm - N/A Fog Fog
5:51 AM 52.0 °F - 52.0 °F 100% 30.22 in 0.5 mi Calm Calm - N/A Fog Fog
5:58 AM 53.1 °F - 52.0 °F 96% 30.21 in 1.5 mi Calm Calm - N/A   Overcast
6:00 AM 53.1 °F - 53.1 °F 100% 30.21 in 3.0 mi Calm Calm - N/A   Overcast
6:22 AM 52.0 °F - 52.0 °F 100% 30.21 in 6.0 mi Calm Calm - N/A   Mostly Cloudy
6:46 AM 53.6 °F - 51.8 °F 94% 30.22 in 1.8 mi Calm Calm - N/A   Mostly Cloudy
6:51 AM 53.1 °F - 53.1 °F 100% 30.22 in 1.2 mi Calm Calm - N/A   Mostly Cloudy
6:56 AM 53.1 °F - 53.1 °F 100% 30.22 in 2.0 mi Calm Calm - N/A   Mostly Cloudy
7:51 AM 55.4 °F - 55.4 °F 100% 30.24 in 5.0 mi Calm Calm - N/A   Partly Cloudy
8:51 AM 62.1 °F - 57.9 °F 86% 30.25 in 10.0 mi Calm Calm - N/A   Scattered Clouds
9:51 AM 69.1 °F - 61.0 °F 75% 30.23 in 10.0 mi East 3.5 mph - N/A   Partly Cloudy
10:51 AM 73.4 °F - 60.8 °F 65% 30.23 in 10.0 mi South 8.1 mph - N/A   Scattered Clouds
11:51 AM 75.9 °F - 62.1 °F 62% 30.22 in 10.0 mi South 9.2 mph - N/A   Scattered Clouds
12:51 PM 77.0 °F - 61.0 °F 58% 30.22 in 10.0 mi South 9.2 mph 16.1 mph N/A   Scattered Clouds
1:51 PM 79.0 °F - 59.0 °F 50% 30.21 in 10.0 mi South 10.4 mph - N/A   Clear
2:51 PM 77.0 °F - 54.0 °F 45% 30.21 in 10.0 mi SSW 8.1 mph - N/A   Scattered Clouds
3:51 PM 80.1 °F 80.1 °F 55.0 °F 42% 30.20 in 10.0 mi SSW 9.2 mph - N/A   Clear
4:51 PM 78.8 °F - 55.4 °F 44% 30.20 in 10.0 mi SSW 8.1 mph - N/A   Partly Cloudy
5:51 PM 79.0 °F - 57.0 °F 47% 30.19 in 10.0 mi SSW 6.9 mph - N/A   Clear
6:51 PM 73.9 °F - 57.9 °F 57% 30.20 in 10.0 mi South 6.9 mph - N/A   Clear
7:51 PM 72.0 °F - 57.9 °F 61% 30.21 in 10.0 mi SSW 4.6 mph - N/A   Clear
8:51 PM 66.9 °F - 57.9 °F 73% 30.23 in 10.0 mi Calm Calm - N/A   Clear
9:51 PM 68.0 °F - 55.9 °F 65% 30.23 in 10.0 mi SSW 3.5 mph - N/A   Clear
10:51 PM 64.0 °F - 59.0 °F 84% 30.23 in 9.0 mi Calm Calm - N/A   Clear
11:51 PM 66.2 °F - 60.8 °F 83% 30.24 in 10.0 mi South 3.5 mph - N/A   Clear